Powrót do katalogu

STARLINK-34162

AktywnyŁącznośćVLEO
NORAD 64018·PAYLOAD·🇺🇸 United States

Wystrzelony May 14, 2025 z Cape Canaveral Space Force Station

Loading…

Następne Przeloty (najbliższe 24 godziny)

TLE

ŚwieżeSource: CelesTrak SupGP

Epoka: Sep 14, 2026, 14:38 UTC

1 64018C 25101AA  26257.61020833 -.00032133  00000+0 -11642-2 0  2579
2 64018  43.0044  11.0669 0001568 274.8951 234.6098 15.27584643    13

Śledź STARLINK-34162 w czasie rzeczywistym z AllMySat

Download on the App Store